Notices

What's New in latest Release from April 7th, 2021:

- Updated Glossary, including Speed of Maximum Gust, and Total Hourly Precipitation

- Updated national and regional climate services offices contacts and prices information

- Addition of station inventory lists for 1981-2010, 1971-2000, and 1961-1990 Normals.

If you haven't already, please take our survey and provide feedback about our website: https://eccc.sondage-survey.ca/f/LanguageSelection.aspx?s=442ca660-fcf1-47c0-95a9-59707d6fd709

Hourly Data Report for September 11, 2017

VICTORIA UNIVERSITY CS
BRITISH COLUMBIA

48°27'25.200" N
123°18'16.600" W
60.10 m
1018598
71783
WYJ

Download Data

Hourly Data (September 2017)
Hourly Data Report for September 11, 2017
TIME
LST
Temp Definition
°C
Dew Point Definition
°C
Rel Hum Definition
%
Precip. Amount Definition
mm

Wind Dir Definition
10's deg

Wind Spd Definition
km/h
Visibility Definition
km
Stn Press Definition
kPa
Hmdx Definition


Wind Chill Definition


Weather Definition


00:00 10.8 10.3 97 0.0 4 1   101.66     LegendNANA
01:00 10.2 9.7 97 0.0 32 1   101.64     LegendNANA
02:00 9.5 9.0 97 0.0 0 1   101.61     LegendNANA
03:00 9.4 9.0 98 0.0   0   101.56     LegendNANA
04:00 9.6 9.3 98 0.0 28 3   101.55     LegendNANA
05:00 9.7 9.5 98 0.0   0   101.52     LegendNANA
06:00 9.2 9.0 98 0.0 26 1   101.51     LegendNANA
07:00 12.0 11.8 99 0.0 26 3   101.48     LegendNANA
08:00 15.9 13.0 83 0.0 8 2   101.41     LegendNANA
09:00 16.9 12.1 73 0.0 9 3   101.38     LegendNANA
10:00 18.6 11.9 65 0.0 10 4   101.38     LegendNANA
11:00 18.9 11.6 63 0.0 11 3   101.33     LegendNANA
12:00 19.8 12.3 62 0.0 10 4   101.27     LegendNANA
13:00 21.8 12.3 54 0.0 16 5   101.21     LegendNANA
14:00 21.9 11.3 51 0.0 12 5   101.14     LegendNANA
15:00 21.2 10.4 50 0.0 19 8   101.10     LegendNANA
16:00 19.3 10.3 56 0.0 20 8   101.03     LegendNANA
17:00 18.4 11.1 63 0.0 22 6   100.95     LegendNANA
18:00 19.1 11.8 63 0.0 24 6   100.91     LegendNANA
19:00 16.5 11.7 73 0.0 14 2   100.92     LegendNANA
20:00 14.6 11.6 83 0.0 6 1   100.96     LegendNANA
21:00 14.4 11.8 85 0.0 20 1   100.93     LegendNANA
22:00 14.3 11.9 86 0.0 24 4   100.92     LegendNANA
23:00 14.0 12.0 87 0.0 26 4   100.89     LegendNANA

Notes on Data Quality.

Legend

  • E = Estimated
  • M = Missing
  • NA = Not Available*
  • [empty] = Indicates an unobserved value
Date modified: